Starlink 3362

operational
NORAD ID: 51108 Int'l Des: 2022-005 Owner: SPXS Country: US Constellation: starlink
LEOCIRCULAR

About Starlink 3362

Description loading...

Live Position

Loading 3D Globe...

Upcoming Passes

Altitude History

Altitude vs Time

uPlot chart will show altitude changes over time

Two-Line Element Set

1 51108U 22005E 25302.88594530 -.00000554 00000-0 -16727-4 0 9991
2 51108 53.2155 156.3228 0001389 89.8153 270.2999 15.08839401209132
Epoch: Oct 29, 2025 • Age: 24 hours

Current Status

Altitude 554.6 km
Velocity 7.58 km/s
Sub-Earth Point -42.08°S, 117.43°E
Launch Date Jan 19, 2022
Age 3.7 years
Type internet

Technical Details

Classification Payload
Mass 297.00 kg
Dry Mass 275.00 kg
Total Mass 297.00 kg
Length 0.20 m
Diameter 2.80 m
Span 9.00 m
Shape Box + pan
Manufacturer SPXS
Bus Type Starlink
Phase Status In Orbit
Owner/State SPXS/US

Large Constellations

Loading constellations...